Regional Weather Roundup
Issued by NWS

Home | Current Version | Previous Version | Graphics & Text | Print | Product List | Glossary On
Versions: 1 2 3 4 5 6 7 8 9 10 11 12 13 14 15 16 17 18 19 20 21 22 23 24 25 26 27 28 29 30 31 32 33 34 35 36 37 38 39 40 41 42 43 44 45 46 47 48 49 50
000
ASUS43 KFSD 280210
RWRSD

WEATHER ROUNDUP FOR SOUTH DAKOTA
NATIONAL WEATHER SERVICE SIOUX FALLS SD
900 PM CDT MON MAR 27 2017

NOTE: "FAIR" INDICATES FEW OR NO CLOUDS BELOW 12,000 FEET WITH NO
SIGNIFICANT WEATHER AND/OR OBSTRUCTIONS TO VISIBILITY.


SDZ001>005-009-010-012>017-280300-
NORTHWEST AND NORTH CENTRAL SOUTH DAKOTA

CITY           SKY/WX    TMP DP  RH WIND       PRES   REMARKS
BUFFALO          N/A     50  34  54 SE14      29.85R
FAITH            N/A     49  35  58 MISG      29.92R
MOBRIDGE       CLEAR     49  35  58 E9        29.93R
$$

SDZ012>016-024>037-041>051-057-063-072>074-280300-
SOUTHWEST AND SOUTH CENTRAL SOUTH DAKOTA

CITY           SKY/WX    TMP DP  RH WIND       PRES   REMARKS
RAPID CTY ARPT MOCLDY    50  35  56 NE10      29.88R
PIERRE         CLEAR     45  31  58 NE7       29.91R
CUSTER         CLOUDY    43  32  65 NE10      29.90R
ELLSWORTH AFB  CLOUDY    52  35  52 CALM      29.88R
PHILIP         CLOUDY    54  36  50 E10       29.89R
PINE RIDGE     CLEAR     51  39  63 E13       29.85R
SPEARFISH      MOCLDY    46  41  81 SE9       29.90R
WINNER         CLOUDY    55  36  48 E10       29.91R
$$

SDZ004>011-016>023-039-040-280300-
NORTHEAST SOUTH DAKOTA

CITY           SKY/WX    TMP DP  RH WIND       PRES   REMARKS
ABERDEEN       MOCLDY    48  35  60 CALM      29.96R
WATERTOWN      MOCLDY    48  38  68 E7        29.97R
BROOKINGS      MOCLDY    50  37  61 E9        29.97R
SISSETON         N/A     44  36  73 CALM      29.98R
$$

SDZ017-020-022-023-036>040-048>070-280300-
SOUTHEAST SOUTH DAKOTA

CITY           SKY/WX    TMP DP  RH WIND       PRES   REMARKS
SIOUX FALLS    PTCLDY    50  39  66 SE9       29.98R
HURON          MOCLDY    48  37  65 E6        29.95R
CHAMBERLAIN    CLOUDY    54  37  52 E8        29.93R
MITCHELL       CLEAR     52  35  52 S6        29.95R
YANKTON        CLEAR     46  37  71 E7        29.96R
$$

ABBREVIATIONS USED IN REMARKS
   TC - TEMPERATURE IN CELSIUS
  WCI - WIND CHILL INDEX
   HX - HEAT INDEX
  VSB - VISIBILITY





USA.gov is the U.S. government's official web portal to all federal, state and local government web resources and services.